Find Starlink 11190

NORAD ID: 60911 Int'l Des: 2024-154 Owner: SPXS Country: US Constellation: starlink operational
LEOCIRCULAR

当前视图

正在加载3D地球...

About Starlink 11190

Starlink 11190 (NORAD 60911) is a starlink constellation satellite (v2 mini d2c) launched Aug 31, 2024 by SPXS of US. It operates in LEO, CIRCULAR orbit with a mass of 960.00 kg.

关于 Starlink 11190

正在加载描述...

即将过境

Passes for default location (London). Set your location on the main map for personalized predictions.

高度历史

Loading altitude history...

两行轨道根数

1 60911U 24154J 26196.47154273 .00000417 00000-0 82989-5 0 9993
2 60911 53.1593 221.3686 0001059 87.2895 272.8244 15.69699507108574
Epoch: Jul 15, 2026 • Age: 14 hours

当前状态

高度 360.6 km
远地点 / 近地点 N/A
速度 7.70 km/s
星下点 27.00°N, 56.89°E
发射日期 Aug 31, 2024
运行时间 1.8 years
类型 internet

技术详情

分类 Payload
质量 960.00 kg
干质量 910.00 kg
总质量 960.00 kg
长度 0.30 m
直径 4.10 m
跨度 29.00 m
形状 Box + pan
制造商 SPXS
平台类型 Starlink V2MD
阶段状态 In Orbit
所有者/国家 SPXS/US

Most Searched